Regional Weather Roundup
Issued by NWS Little Rock, AR

Home | Current Version | Previous Version | Text Only | Print | Product List | Glossary On
Versions: 1 2 3 4 5 6 7 8 9 10 11 12 13 14 15 16 17 18 19 20 21 22 23 24 25 26 27 28 29 30 31 32 33 34 35 36 37 38 39 40 41 42 43 44 45 46 47 48 49
000
ASUS44 KLZK 020705
RWRLZK

WEATHER ROUNDUP FOR ARKANSAS
NATIONAL WEATHER SERVICE LITTLE ROCK AR
100 AM CST MON MAR 02 2015

NOTE: "FAIR" INDICATES FEW OR NO CLOUDS BELOW 12,000 FEET WITH NO
SIGNIFICANT WEATHER AND/OR OBSTRUCTIONS TO VISIBILITY.

ARZ001-003-010-029-020800-
NORTHWEST ARKANSAS

CITY           SKY/WX    TMP DP  RH WIND       PRES   REMARKS
FAYETTEVILLE   CLOUDY    30  28  92 NE9       30.42F WCI  22
FORT SMITH     CLOUDY    36  32  85 NW3       30.45R
HARRISON       CLOUDY    29  26  89 N8        30.45R WCI  21
BENTONVILLE    MOCLDY    28  21  74 NE7       30.44F WCI  21
ROGERS         CLOUDY    27  24  89 NE9       30.44F WCI  18
SILOAM SPGS    MOCLDY    28  21  74 CALM      30.44F
HIGHFILL       MOCLDY    29  23  78 NE8       30.43F WCI  21
$$

ARZ004-005-016-020800-
NORTH CENTRAL ARKANSAS

CITY           SKY/WX    TMP DP  RH WIND       PRES   REMARKS
BATESVILLE     CLOUDY    36  30  80 N5        30.45R
FLIPPIN        CLOUDY    32  25  74 N8        30.46S WCI  25
MTN HOME       CLOUDY    31  26  82 N6        30.46R WCI  25
$$

ARZ040-041-020800-
WEST CENTRAL ARKANSAS

CITY           SKY/WX    TMP DP  RH WIND       PRES   REMARKS
MENA           CLOUDY    39  36  87 NE6       30.38S
MOUNT IDA      CLOUDY    37  36  96 CALM      30.38R FOG
$$

ARZ009-017-025-026-028-020800-
NORTHEAST ARKANSAS

CITY           SKY/WX    TMP DP  RH WIND       PRES   REMARKS
CORNING        CLOUDY    34  28  80 N9G16     30.47S WCI  26
JONESBORO      CLOUDY    35  31  85 NE12      30.45R WCI  27
NEWPORT        CLOUDY    35  33  92 N12       30.47R WCI  27
WALNUT RIDGE   MOCLDY    34  28  80 N7        30.46R WCI  28
BLYTHEVILLE    CLOUDY    34  31  88 NE15      30.45R WCI  24
$$

ARZ022-023-033-042-044-020800-
CENTRAL ARKANSAS

CITY           SKY/WX    TMP DP  RH WIND       PRES   REMARKS
LITTLE ROCK    CLOUDY    39  34  82 N9        30.42S
N LITTLE ROCK    N/A     37  37  98 N7        30.42S
JACKSONVILLE   CLOUDY    38  35  89 N5        30.42R
SEARCY         CLOUDY    38  35  89 N9        30.45R
HOT SPRINGS    CLOUDY    40  35  83 N5        30.40S
RUSSELLVILLE   CLOUDY    38  33  82 N8        30.42F
CLINTON        CLOUDY    36  32  87 N5        30.46R
$$

ARZ036-020800-
EAST ARKANSAS

CITY           SKY/WX    TMP DP  RH WIND       PRES   REMARKS
WEST MEMPHIS   CLOUDY    36  35  96 N9        30.42R
$$

ARZ050-053-066-070-073-020800-
SOUTHWEST ARKANSAS

CITY           SKY/WX    TMP DP  RH WIND       PRES   REMARKS
ARKADELPHIA    CLOUDY    41  39  92 N8        30.41R
CAMDEN         CLOUDY    41  37  87 MISG      30.40R FOG
TEXARKANA      CLOUDY    41  40  96 NE7       30.36F FOG
EL DORADO      CLOUDY    41  39  93 N9        30.37S FOG
DE QUEEN       CLOUDY    41  37  86 CALM      30.37S
$$

ARZ056-057-069-020800-
SOUTHEAST ARKANSAS

CITY           SKY/WX    TMP DP  RH WIND       PRES   REMARKS
PINE BLUFF     CLOUDY    39  37  92 N12       30.42R FOG
STUTTGART      CLOUDY    39  36  87 NE13      30.41S
MONTICELLO     CLOUDY    40  37  89 VRB5      30.37S FOG

$$





USA.gov is the U.S. government's official web portal to all federal, state and local government web resources and services.